Tracking 29932 objects as of 3-Dec-2024
HD Live streaming from Space Station
objects crossing your sky now

STARLINK-30264

Track STARLINK-30264 now!
10-day predictions
STARLINK-30264 is classified as:


NORAD ID: 57534
Int'l Code: 2023-115P
Perigee: 494.0 km
Apogee: 496.5 km
Inclination: 43.0 °
Period: 94.4 minutes
Semi major axis: 6866 km
RCS: Unknown
Launch date: August 8, 2023
Source: United States (US)
Launch site: AIR FORCE WESTERN TEST RANGE (AFWTR)
Your satellite tracking list
Your tracking list is empty




NASA's NSSDC Master Catalog

Two Line Element Set (TLE):
1 57534U 23115P   24337.61312697 -.00001835  00000-0 -60359-4 0  9996
2 57534  43.0010 294.5511 0001837 242.2666 117.7999 15.25895746 74734
Source of the keplerian elements: AFSPC